Overview Statistics Trail Chart Weather Telemetry Raw packets
 

This is the latest recevied weather packets stored in our database for station/object OK1FET-4. If no packets are shown the sender has not sent any weather packets the latest 10 day(s).

<< 88 89 90 91 92 93 94 >>
Time Temp. Humidity Pressure Rain* Wind** Luminosity Snow
1788012217 26.11° C 43% 1016.6 hPa - - - -
1788011922 26.11° C 45% 1016.6 hPa - - - -
1788011614 25.56° C 45% 1016.6 hPa - - - -
1788011312 26.11° C 42% 1016.6 hPa - - - -
1788011011 26.11° C 46% 1016.6 hPa - - - -
1788010709 25.56° C 46% 1016.7 hPa - - - -
1788010408 24.44° C 46% 1016.7 hPa - - - -
1788010106 25.56° C 45% 1016.9 hPa - - - -
1788009805 25.56° C 45% 1016.9 hPa - - - -
1788009503 25° C 46% 1016.8 hPa - - - -
1788009202 24.44° C 46% 1017 hPa - - - -
1788008900 24.44° C 46% 1016.8 hPa - - - -
1788008601 23.89° C 47% 1016.9 hPa - - - -
1788008298 25° C 47% 1016.9 hPa - - - -
1788007996 25° C 47% 1016.8 hPa - - - -
1788007694 25° C 46% 1016.8 hPa - - - -
1788007393 25° C 52% 1016.9 hPa - - - -
1788007091 24.44° C 50% 1016.9 hPa - - - -
1788006790 24.44° C 54% 1017 hPa - - - -
1788006489 23.89° C 50% 1016.9 hPa - - - -
1788006188 23.33° C 52% 1016.9 hPa - - - -
1788005886 23.33° C 52% 1016.9 hPa - - - -
1788005585 23.33° C 52% 1017.1 hPa - - - -
1788005284 22.78° C 51% 1017 hPa - - - -
1788004983 22.78° C 55% 1017.1 hPa - - - -

* Rain since midnight (hover to see other rain measurements)
** Current wind speed in m/s (hover to see current wind gust speed)